Flag for Canada Weather past 2 weeks in Kelowna, British Columbia, Canada

Now
63 °F

Mild.


Feels Like: 63 °F
Forecast: 48 / 80 °F
Wind: 5 mph from Northwest

Location: Kelowna Airport

Current Time: Sep 17, 2014 at 10:57:15 AM

Latest Report: Sep 17, 2014 at 10:00 AM


Visibility: 9 mi

Pressure: 29.79 "Hg

Humidity: 52%

Dew point: 45 °F

Location of KelownaLocation

Historic Weather in Kelowna — Graph

°F

Kelowna temperature yesterday

Maximum temperature yesterday: 81 °F (at 4:00 PM)
Minimum temperature yesterday: 41 °F (at 4:00 AM)
Average temperature yesterday: 59 °F

Past Weeks' High & Low Weather Summary

 TemperatureHumidityPressure
High86 °F (Sep 7, 4:00 PM)94% (Sep 2, 8:50 PM)30.55 "Hg (Sep 2, 8:50 PM)
Low30 °F (Sep 11, 6:00 AM)21% (Sep 15, 5:00 PM)29.67 "Hg (Sep 7, 6:00 PM)
Average57 °F59%30.04 "Hg
* Reported Sep 2 9:00 AM — Sep 17 9:00 AM, Kelowna, Weather by CustomWeather, © 2014

Note: Actual official high and low records may vary slightly from our data, if they occured in-between our weather recording intervals... More about our weather records

Advertising

Kelowna weather history for previous 24 hours

 ConditionsComfort  
Time TempWeatherWind HumidityBarometerVisibility
9:00 AM
Sep 17
59 °FCool.3 mph68%29.80 "Hg9 mi
8:00 AM52 °FPartly sunny.2 mph82%29.81 "Hg9 mi
7:00 AM48 °FCool.2 mph82%29.81 "Hg9 mi
6:00 AM48 °FPassing clouds.3 mph82%29.80 "Hg9 mi
5:00 AM50 °FPartly cloudy.3 mph76%29.80 "Hg9 mi
4:00 AM52 °FPartly cloudy.No wind72%29.80 "Hg9 mi
3:00 AM54 °FPassing clouds.2 mph67%29.80 "Hg9 mi
2:00 AM46 °FClear.5 mph82%29.82 "Hg9 mi
1:00 AM50 °FClear.2 mph71%29.82 "Hg9 mi
12:00 AM52 °FClear.3 mph72%29.81 "Hg9 mi
11:00 PM
Sep 16
55 °FClear.3 mph63%29.81 "Hg9 mi
10:00 PM55 °FClear.3 mph67%29.80 "Hg9 mi
9:00 PM57 °FClear.3 mph67%29.80 "Hg9 mi
8:00 PM59 °FSunny.2 mph68%29.80 "Hg9 mi
7:00 PM68 °FSunny.No wind53%29.79 "Hg9 mi
6:00 PM75 °FSunny.7 mph39%29.78 "Hg9 mi
5:00 PM81 °FSunny.3 mph24%29.78 "Hg9 mi
4:00 PM81 °FSunny.10 mph24%29.80 "Hg9 mi
3:00 PM79 °FSunny.8 mph26%29.81 "Hg9 mi
2:00 PM77 °FSunny.6 mph28%29.84 "Hg9 mi
1:00 PM75 °FSunny.5 mph34%29.87 "Hg7 mi
12:00 PM72 °FSunny.3 mph36%29.90 "Hg9 mi
11:00 AM66 °FSunny.2 mph40%29.92 "Hg9 mi
10:00 AM63 °FSunny.3 mph52%29.94 "Hg9 mi
Weather by CustomWeather, © 2014

See weather overviewHow to use our weather pages